Location: Gönnheim
(49.4488°N, 8.2383°E)
Time: 22:05:18
(UTC+00:00)

Cosmos 1538 Rocket - Pass Details

Date: 19 May 2025
Orbit: 749 x 788 km, 74.0° (Epoch: 15 June)

Event Time Altitude Azimuth Distance (km) Brightness Sun altitude
Exits shadow 22:50:40 41° 194° (SSW) 1,088 4.3 -20.2°
Maximum altitude 22:52:31 82° 112° (ESE) 765 3.9 -20.2°
Drops below altitude 10° 22:57:41 10° 25° (NNE) 2,280 7.3 -20.3°
Sets 23:00:03 0° 25° (NNE) 3,208 8.2 -20.4°
